Regional Weather Roundup
Issued by NWS

Home | Current Version | Previous Version | Text Only | Print | Product List | Glossary Off
Versions: 1 2 3 4 5 6 7 8 9 10 11 12 13 14 15 16 17 18 19 20 21 22 23 24 25 26 27 28 29 30 31 32 33 34 35 36 37 38 39 40 41 42 43 44 45 46 47 48 49 50

000
ASUS43 KBIS 310810
RWRND

NORTH DAKOTA REGIONAL WEATHER ROUNDUP
NATIONAL WEATHER SERVICE BISMARCK ND
300 AM CDT FRI JUL 31 2015

NOTE: "FAIR" INDICATES FEW OR NO CLOUDS BELOW 12,000 FEET WITH NO
SIGNIFICANT WEATHER AND/OR OBSTRUCTIONS TO VISIBILITY.


NDZ001>003-009>011-017-310900-
NORTHWEST NORTH DAKOTA

CITY           SKY/WX    TMP DP  RH WIND       PRES   REMARKS
WILLISTON      CLEAR     55  50  83 W3        30.17S
MINOT          CLEAR     57  48  72 SW12      30.12S
MINOT AFB      CLEAR     53  51  95 W9        30.11S
$$

NDZ018>021-031>035-040>046-310900-
SOUTHWEST NORTH DAKOTA

CITY           SKY/WX    TMP DP  RH WIND       PRES   REMARKS
BISMARCK       CLEAR     57  52  83 SW3       30.17S
DICKINSON      CLEAR     51  45  79 S6        30.19F
GARRISON         N/A     56  52  86 W5        30.16S
HETTINGER ARPT CLEAR     50  46  86 CALM      30.22F
$$

NDZ004>008-012>016-024-026-027-054-310900-
NORTHEAST NORTH DAKOTA

CITY           SKY/WX    TMP DP  RH WIND       PRES   REMARKS
GRAND FORKS    CLEAR     56  51  84 W8        30.02S
GRND FRKS AFB  CLEAR     60  51  73 NW8       30.03S
DEVILS LAKE    CLEAR     61  50  67 W10       30.07S
$$

NDZ022-023-025-028>030-036>039-047>053-310900-
SOUTHEAST NORTH DAKOTA

CITY           SKY/WX    TMP DP  RH WIND       PRES   REMARKS
FARGO          CLEAR     58  53  84 W8        30.05S
JAMESTOWN      CLEAR     59  50  72 W7        30.12R
$$



USA.gov is the U.S. government's official web portal to all federal, state and local government web resources and services.